THOR AGENA B DEB, 1951

Orbit data source: Space-Track

THOR AGENA B DEB, 1951 is space debris in LEO originally from a launch on Mon, 29 Nov 1965 UTC launched from the Air Force Western Test Range (AFWTR). Debris objects in space refer to the collection of defunct objects orbiting the Earth. Examples of debris include non-operational satellites, rocket bodies, and fragments generated from explosions, collisions, or faulty payload assembly.

Loading next visibility...
Identifier
1951, 1965-098G
Orbit
LEO
Country
Flag of USUS
Related business
Manufacturer
Unknown
Mission
Spacecraft
Bus & Motor
Unknown
Mass
~1 kg wet, ~1 kg dry
Launch date (UTC)
1965-11-29 (60 years ago)
Launch vehicle
Unknown
Launch site
Air Force Western Test Range (AFWTR)
Object type
Payload
Rocket body
Debris
Shape & HBR
Half Cyl + Cone, 0.8 m
Radar Cross Section
0.531 m², Medium (>0.1 m² and < 1m²)

Expand to show TLE details & history
Last TLE update: 15 hours ago

TLE from 15 hours ago
0 THOR AGENA B DEB
1 01951U 65098G   25242.73218608  .00005799  00000-0  10970-2 0  9993
2 01951  79.6118 254.8038 0775639 257.2677  94.0756 13.54904000768247
Epoch: 2025-08-30T17:34Z
TLE epoch observation values (Epoch: 2025-08-30T17:34:20.877Z)
Latitude
-0.00001°
Longitude
12.05455°
Altitude
1,141.985 km
Speed
7.24 km/s
True Right ascension
16h 59m 12s
True Declination
0° 00' 00"
Sunlit
Object was in daylight at epoch
Visualization orbit readout
Latitude
Unknown
Longitude
Unknown
Altitude
Unknown
Speed
Unknown
Apparent Right ascension
Unknown
Apparent Declination
Unknown
Sunlit
N/A
Visualization observer readout
Local Sidereal Time
00:11:56
Azimuth
Unknown
Elevation
Unknown
Doppler factor
Unknown
Orbital elements
Apogee altitude
1,627.855 km
Perigee altitude
475.3 km
Semi-major axis
7,429.714 km
Eccentricity
0.07756
Inclination
79.6118°
RAAN
254.8038°
Arg. of periapsis
257.2677°
True anomaly
102.84626°
Mean anomaly
94.0756°
Eccentric anomaly
98.4712°
Mean motion
3.3891 °/min
Orbital period
106.22 mins
BSTAR
0.001097
Loading maneuver chart data...
Computing Atmospheric mass density...
Loading historical data...
Loading historical data...
Loading historical data...
Loading historical data...
Loading historical data...
Loading historical data...
Loading historical data...

Documentation

Showing up to 5 results
|